Hourly Weather Roundup
Issued by NWS Central Illinois

Home | Current Version | Previous Version | Text Only | Print | Product List | Glossary On
Versions: 1 2 3 4 5 6 7 8 9 10 11 12 13 14 15 16 17 18 19 20 21 22 23 24 25 26 27 28 29 30 31 32 33 34 35 36 37 38 39 40 41 42 43 44 45 46 47 48 49 50
000
NZUS43 KILX 211810
HWRILX

AREA WEATHER ROUNDUP
NATIONAL WEATHER SERVICE, LINCOLN IL
100 PM CDT THU AUG 21 2014


CITY           SKY/WX    TMP DP  RH WIND       PRES   REMARKS
BLOOMINGTON    PTSUNNY   85  72  65 SW10      29.98F HX  91
CHAMPAIGN      CLOUDY    85  75  72 SW9       29.99F HX  93
6HR MIN TEMP:  73; 6HR MAX TEMP:  85;

DECATUR        PTSUNNY   87  74  64 SW14      29.99F HX  95
6HR MIN TEMP:  75; 6HR MAX TEMP:  87;

FLORA          PTSUNNY   87  74  65 SW7       30.03F HX  96
6HR MIN TEMP:  72; 6HR MAX TEMP:  88;

GALESBURG      PTSUNNY   85  75  73 S7        29.94S HX  94
JACKSONVILLE   PTSUNNY   88  76  67 SW14      29.97S HX  99
6HR MIN TEMP:  75; 6HR MAX TEMP:  88;

LACON          CLOUDY    84  73  68 SW7       29.94S HX  91
6HR MIN TEMP:  71; 6HR MAX TEMP:  84;

LAWRENCEVILLE  PTSUNNY   88  75  65 SW8       30.04F HX  97
6HR MIN TEMP:  73; 6HR MAX TEMP:  88;

LITCHFIELD     PTSUNNY   84  76  77 S12       30.00F HX  93
$$


CITY           SKY/WX    TMP DP  RH WIND       PRES   REMARKS
LINCOLN        PTSUNNY   87  74  65 SW7       29.93F HX  95
6HR MIN TEMP:  72; 6HR MAX TEMP:  88;

MACOMB         PTSUNNY   84  75  73 SW9       29.96S HX  92
MATTOON        PTSUNNY   84  74  71 SW9       30.00F HX  91
6HR MIN TEMP:  73; 6HR MAX TEMP:  86;

MT CARMEL AP   PTSUNNY   90  77  66 SW10      30.04S HX 102
OLNEY-NOBLE AP PTSUNNY   88  77  70 S6        30.03F HX 100
PARIS          PTSUNNY   85  76  74 SW5       30.02S HX  95
6HR MIN TEMP:  72; 6HR MAX TEMP:  85;

PEORIA         CLOUDY    85  73  67 SW7       29.95F HX  91
6HR MIN TEMP:  73; 6HR MAX TEMP:  86;

PONTIAC        CLOUDY    86  75  70 SW9       29.95F HX  95
RANTOUL        PTSUNNY   86  72  63 W6        29.99F HX  92
6HR MIN TEMP:  71; 6HR MAX TEMP:  86;

ROBINSON       PTSUNNY   88  78  72 SW9       30.03F HX 101
6HR MIN TEMP:  75; 6HR MAX TEMP:  88;

SPRINGFIELD    PTSUNNY   86  74  67 SW12G20   29.97F HX  94
6HR MIN TEMP:  73; 6HR MAX TEMP:  87;

TAYLORVILLE    PTSUNNY   82  75  78 SW9       29.99F HX  89
$$

...REGIONAL REPORTS...


CITY           SKY/WX    TMP DP  RH WIND       PRES   REMARKS
CHICAGO O`HARE CLOUDY    77  68  73 SW3       29.96R
KANKAKEE       PTSUNNY   83  74  74 S9        29.96F HX  90
MOLINE         CLOUDY    83  73  72 SW5       29.93R HX  89
MOUNT VERNON   PTSUNNY   90  75  62 SW10      30.03F HX 100
PITTSFIELD     MOSUNNY   88  73  60 SW9G20    29.96F HX  95
QUINCY         MOSUNNY   88  73  61 SW15      29.94F HX  95
ROCKFORD       CLOUDY    77  72  84 S6        29.95F
$$


CITY           SKY/WX    TMP DP  RH WIND       PRES   REMARKS
BURLINGTON     PTSUNNY   85  75  72 SW7       29.93R HX  93
CEDAR RAPIDS   RAIN      75  74  96 VRB3      29.92S FOG
DES MOINES     CLOUDY    83  73  72 S9G17     29.88S HX  89
KIRKSVILLE     SUNNY     88  74  63 SW10      29.93F HX  96
OTTUMWA        PTSUNNY   83  72  69 VRB5      29.91F HX  88
ST LOUIS       PTSUNNY   92  74  55 SW9       30.00F HX 101
$$


CITY           SKY/WX    TMP DP  RH WIND       PRES   REMARKS
TERRE HAUTE    CLOUDY    85  73  67 SW7       30.02F HX  91
EVANSVILLE     MOSUNNY   89  73  59 W7        30.06F HX  97
INDIANAPOLIS   PTSUNNY   82  71  69 SW6       30.04F HX  86
LAFAYETTE      CLOUDY    81  72  74 S9        29.99F HX  85
MADISON        LGT RAIN  72  70  93 SE9       29.93F
MILWAUKEE      TSTM      71  68  90 NW5       30.01R FOG
$$




USA.gov is the U.S. government's official web portal to all federal, state and local government web resources and services.